Consulta los datos en tiempo real de la estación municipal de Susqueda - Veïnat del Coll
| Hora UTC | 10:35 |
|---|---|
| Temperatura | 25.9 ºC |
| Humedad | 47.4 % |
| Presión | 1022.6 hPa |
| Pluja | 0.0 mm |
| Velocidad viento | 4.3 km/h |
| Dirección viento | NE |
| Radiación solar | 876.0 W/m² |
| Temperatura (ºC) | Humedad (%) | Presión (hPa) | Velocidad viento (km/h) | Precipitación (mm) | Radiación solar (W/m²) | |||||||||||||
|---|---|---|---|---|---|---|---|---|---|---|---|---|---|---|---|---|---|---|
| Hora UTC | Aire | Humedad | Presión | Vel. | Dir. | Vel. Max | Dir. | Intent. máx 5 min. | Rad. Sol. | |||||||||
| 00:05 | 20.7 | 55.2 | 1021.0 | 0.3 | NW | 0.3 | NE | 0.0 | 0.1 | |||||||||
| 00:10 | 20.7 | 55.5 | 1021.0 | 0.7 | NE | 7.4 | ENE | 0.0 | 0.1 | |||||||||
| 00:15 | 20.8 | 55.2 | 1021.0 | 0.5 | ENE | 4.2 | ENE | 0.0 | 0.1 | |||||||||
| 00:20 | 20.9 | 55.4 | 1021.0 | 2.5 | ENE | 6.0 | ENE | 0.0 | 0.1 | |||||||||
| 00:25 | 20.8 | 55.3 | 1021.0 | 2.9 | E | 5.3 | ESE | 0.0 | 0.1 | |||||||||
| 00:30 | 20.8 | 55.3 | 1021.0 | 3.2 | E | 9.5 | ENE | 0.0 | 0.1 | |||||||||
| 00:35 | 20.6 | 55.9 | 1021.0 | 2.9 | ESE | 4.2 | SE | 0.0 | 0.1 | |||||||||
| 00:40 | 20.4 | 56.4 | 1021.0 | 3.1 | ESE | 5.3 | E | 0.0 | 0.1 | |||||||||
| 00:45 | 20.3 | 57.2 | 1020.9 | 3.4 | ESE | 6.0 | ESE | 0.0 | 0.1 | |||||||||
| 00:50 | 20.2 | 57.5 | 1020.9 | 3.9 | ESE | 8.1 | E | 0.0 | 0.1 | |||||||||
| 00:55 | 20.1 | 57.5 | 1020.8 | 4.1 | ESE | 7.8 | E | 0.0 | 0.1 | |||||||||
| 01:00 | 20.0 | 57.4 | 1020.8 | 5.4 | ESE | 10.6 | SE | 0.0 | 0.1 | |||||||||
| 01:05 | 20.1 | 56.3 | 1020.8 | 9.1 | SE | 13.8 | SE | 0.0 | 0.1 | |||||||||
| 01:10 | 20.3 | 55.6 | 1020.8 | 8.8 | SE | 12.4 | ESE | 0.0 | 0.1 | |||||||||
| 01:15 | 20.2 | 55.5 | 1020.8 | 8.7 | SE | 11.6 | SE | 0.0 | 0.1 | |||||||||
| 01:20 | 20.2 | 56.1 | 1020.8 | 8.8 | SE | 13.1 | SE | 0.0 | 0.1 | |||||||||
| 01:25 | 20.2 | 56.0 | 1020.8 | 10.6 | SE | 15.2 | SE | 0.0 | 0.1 | |||||||||
| 01:30 | 20.2 | 55.7 | 1020.8 | 11.7 | SE | 15.5 | SE | 0.0 | 0.1 | |||||||||
| 01:35 | 20.2 | 55.8 | 1020.8 | 12.8 | SE | 16.9 | SE | 0.0 | 0.1 | |||||||||
| 01:40 | 20.2 | 56.3 | 1020.8 | 12.2 | SE | 15.9 | SE | 0.0 | 0.1 | |||||||||
| 01:45 | 20.4 | 56.6 | 1020.8 | 10.9 | SE | 15.5 | ESE | 0.0 | 0.1 | |||||||||
| 01:50 | 20.4 | 57.1 | 1020.8 | 11.7 | SE | 20.1 | SSE | 0.0 | 0.1 | |||||||||
| 01:55 | 20.4 | 56.5 | 1020.8 | 9.7 | SE | 18.0 | SE | 0.0 | 0.1 | |||||||||
| 02:00 | 20.2 | 56.7 | 1020.8 | 7.8 | SSE | 15.2 | SE | 0.0 | 0.1 | |||||||||
| 02:05 | 19.9 | 56.7 | 1020.8 | 8.9 | SSE | 17.3 | SSE | 0.0 | 0.1 | |||||||||
| 02:10 | 19.7 | 57.8 | 1020.8 | 8.0 | SSE | 17.3 | SE | 0.0 | 0.1 | |||||||||
| 02:15 | 19.7 | 59.2 | 1020.8 | 8.3 | SSE | 16.2 | SSE | 0.0 | 0.1 | |||||||||
| 02:20 | 19.7 | 60.2 | 1020.8 | 7.6 | SSE | 16.6 | SE | 0.0 | 0.1 | |||||||||
| 02:25 | 19.7 | 60.4 | 1020.8 | 9.1 | SSE | 17.3 | SE | 0.0 | 0.1 | |||||||||
| 02:30 | 19.7 | 60.7 | 1020.8 | 9.2 | SSE | 19.1 | SE | 0.0 | 0.1 | |||||||||
| 02:35 | 19.6 | 61.4 | 1020.8 | 9.4 | SSE | 19.4 | SE | 0.0 | 0.1 | |||||||||
| 02:40 | 19.6 | 62.0 | 1020.8 | 10.2 | SE | 17.3 | SSE | 0.0 | 0.1 | |||||||||
| 02:45 | 19.7 | 61.8 | 1020.8 | 10.6 | SE | 18.0 | SE | 0.0 | 0.1 | |||||||||
| 02:50 | 19.8 | 61.2 | 1020.8 | 12.5 | SE | 21.5 | SE | 0.0 | 0.1 | |||||||||
| 02:55 | 19.7 | 61.5 | 1020.8 | 13.0 | SE | 19.8 | SE | 0.0 | 0.1 | |||||||||
| 03:00 | 19.5 | 62.0 | 1020.8 | 14.4 | SE | 20.8 | SSE | 0.0 | 0.1 | |||||||||
| 03:05 | 19.4 | 62.5 | 1020.8 | 12.6 | SE | 19.8 | SE | 0.0 | 0.1 | |||||||||
| 03:10 | 19.3 | 62.9 | 1020.8 | 14.7 | SE | 20.5 | ESE | 0.0 | 0.1 | |||||||||
| 03:15 | 19.3 | 63.4 | 1020.8 | 13.4 | SE | 20.1 | ESE | 0.0 | 0.1 | |||||||||
| 03:20 | 19.2 | 63.8 | 1020.8 | 13.9 | SE | 20.5 | SSE | 0.0 | 0.1 | |||||||||
| 03:25 | 19.2 | 64.1 | 1020.8 | 13.0 | SE | 17.6 | SE | 0.0 | 0.1 | |||||||||
| 03:30 | 19.0 | 65.3 | 1020.8 | 12.3 | SE | 17.3 | SE | 0.0 | 0.1 | |||||||||
| 03:35 | 19.0 | 65.3 | 1020.7 | 11.6 | SE | 16.2 | SE | 0.0 | 0.1 | |||||||||
| 03:40 | 19.0 | 65.1 | 1020.7 | 10.9 | SE | 17.3 | SSE | 0.0 | 0.1 | |||||||||
| 03:45 | 19.0 | 65.3 | 1020.8 | 13.3 | SE | 19.8 | SE | 0.0 | 0.1 | |||||||||
| 03:50 | 18.9 | 65.8 | 1020.8 | 12.9 | SE | 22.2 | SE | 0.0 | 0.1 | |||||||||
| 03:55 | 18.9 | 66.1 | 1020.8 | 11.8 | SE | 20.8 | SSE | 0.0 | 0.1 | |||||||||
| 04:00 | 18.8 | 65.8 | 1020.8 | 13.2 | SE | 19.8 | SE | 0.0 | 0.1 | |||||||||
| 04:05 | 18.8 | 66.3 | 1020.8 | 15.2 | SE | 20.5 | ESE | 0.0 | 0.1 | |||||||||
| 04:10 | 18.9 | 66.0 | 1020.8 | 11.0 | SE | 17.3 | SE | 0.0 | 0.1 | |||||||||
| 04:15 | 18.8 | 66.3 | 1020.8 | 9.1 | SSE | 16.2 | SE | 0.0 | 0.1 | |||||||||
| 04:20 | 18.7 | 66.6 | 1020.8 | 8.7 | SE | 15.5 | SE | 0.0 | 0.1 | |||||||||
| 04:25 | 18.8 | 66.2 | 1020.7 | 9.1 | SE | 15.5 | SE | 0.0 | 0.1 | |||||||||
| 04:30 | 18.8 | 66.2 | 1020.7 | 9.0 | SSE | 14.8 | SE | 0.0 | 0.1 | |||||||||
| 04:35 | 18.7 | 66.4 | 1020.7 | 10.7 | SE | 17.3 | SSE | 0.0 | 0.1 | |||||||||
| 04:40 | 18.7 | 66.4 | 1020.7 | 10.3 | SSE | 18.7 | SE | 0.0 | 0.1 | |||||||||
| 04:45 | 18.8 | 65.9 | 1020.7 | 11.5 | SE | 19.4 | SE | 0.0 | 0.1 | |||||||||
| 04:50 | 18.8 | 65.6 | 1020.7 | 11.8 | SE | 19.4 | SE | 0.0 | 0.1 | |||||||||
| 04:55 | 18.7 | 65.8 | 1020.7 | 13.5 | SE | 20.1 | SE | 0.0 | 0.4 | |||||||||
| 05:00 | 18.6 | 66.1 | 1020.7 | 11.6 | SE | 18.0 | SE | 0.0 | 0.8 | |||||||||
| 05:05 | 18.7 | 65.7 | 1020.7 | 12.6 | SE | 22.2 | ESE | 0.0 | 1.6 | |||||||||
| 05:10 | 18.7 | 65.7 | 1020.7 | 13.2 | SE | 21.2 | SE | 0.0 | 2.7 | |||||||||
| 05:15 | 18.6 | 66.2 | 1020.7 | 14.0 | SE | 22.2 | SE | 0.0 | 4.6 | |||||||||
| 05:20 | 18.6 | 65.6 | 1020.7 | 14.7 | SE | 22.2 | SE | 0.0 | 12.1 | |||||||||
| 05:25 | 18.7 | 64.9 | 1020.8 | 14.8 | SE | 24.3 | SE | 0.0 | 21.2 | |||||||||
| 05:30 | 18.9 | 64.5 | 1020.8 | 14.4 | SE | 23.3 | SE | 0.0 | 31.9 | |||||||||
| 05:35 | 18.9 | 64.6 | 1020.9 | 12.6 | SE | 20.8 | SSE | 0.0 | 43.2 | |||||||||
| 05:40 | 19.0 | 64.3 | 1020.9 | 14.6 | SE | 26.1 | SE | 0.0 | 55.1 | |||||||||
| 05:45 | 19.1 | 63.4 | 1021.0 | 13.8 | SE | 23.6 | SE | 0.0 | 64.7 | |||||||||
| 05:50 | 19.2 | 62.0 | 1021.0 | 14.5 | SE | 24.3 | SE | 0.0 | 78.7 | |||||||||
| 05:55 | 19.3 | 60.3 | 1021.1 | 16.1 | SE | 25.4 | SE | 0.0 | 92.1 | |||||||||
| 06:00 | 19.4 | 60.1 | 1021.1 | 13.1 | SE | 20.8 | SE | 0.0 | 105.4 | |||||||||
| 06:05 | 19.5 | 60.0 | 1021.1 | 11.3 | ESE | 20.5 | SE | 0.0 | 119.1 | |||||||||
| 06:10 | 19.6 | 59.7 | 1021.1 | 11.7 | SE | 19.8 | ESE | 0.0 | 132.9 | |||||||||
| 06:15 | 19.6 | 58.4 | 1021.1 | 16.5 | SE | 25.8 | SSE | 0.0 | 147.7 | |||||||||
| 06:20 | 19.7 | 56.8 | 1021.1 | 15.5 | SE | 25.4 | SE | 0.0 | 161.9 | |||||||||
| 06:25 | 19.8 | 56.4 | 1021.2 | 15.6 | SE | 23.6 | SE | 0.0 | 176.8 | |||||||||
| 06:30 | 19.9 | 56.3 | 1021.2 | 14.4 | SE | 25.1 | ESE | 0.0 | 192.0 | |||||||||
| 06:35 | 20.0 | 56.0 | 1021.3 | 14.4 | SE | 24.0 | SE | 0.0 | 206.6 | |||||||||
| 06:40 | 20.1 | 55.8 | 1021.3 | 14.3 | SE | 25.1 | SE | 0.0 | 221.5 | |||||||||
| 06:45 | 20.3 | 55.2 | 1021.4 | 14.6 | SE | 25.4 | SE | 0.0 | 236.5 | |||||||||
| 06:50 | 20.3 | 54.7 | 1021.4 | 13.2 | SE | 24.0 | ESE | 0.0 | 252.1 | |||||||||
| 06:55 | 20.5 | 54.8 | 1021.5 | 13.7 | SE | 24.3 | SE | 0.0 | 267.5 | |||||||||
| 07:00 | 20.5 | 54.5 | 1021.5 | 13.2 | SE | 23.6 | SE | 0.0 | 283.0 | |||||||||
| 07:05 | 20.7 | 54.1 | 1021.5 | 14.1 | SE | 27.5 | SE | 0.0 | 297.9 | |||||||||
| 07:10 | 20.6 | 54.7 | 1021.5 | 16.9 | SE | 26.5 | ESE | 0.0 | 313.5 | |||||||||
| 07:15 | 20.8 | 54.5 | 1021.5 | 11.5 | SE | 22.6 | SE | 0.0 | 329.1 | |||||||||
| 07:20 | 21.0 | 54.4 | 1021.5 | 12.8 | SE | 22.6 | SE | 0.0 | 344.7 | |||||||||
| 07:25 | 20.9 | 55.1 | 1021.6 | 13.3 | SE | 23.6 | SE | 0.0 | 360.0 | |||||||||
| 07:30 | 21.3 | 55.4 | 1021.6 | 9.5 | SE | 20.5 | ESE | 0.0 | 375.6 | |||||||||
| 07:35 | 21.5 | 55.6 | 1021.6 | 12.5 | SE | 22.2 | SE | 0.0 | 391.1 | |||||||||
| 07:40 | 21.6 | 55.9 | 1021.6 | 11.4 | ESE | 23.3 | ESE | 0.0 | 406.4 | |||||||||
| 07:45 | 21.8 | 55.9 | 1021.7 | 9.9 | SE | 18.4 | E | 0.0 | 421.8 | |||||||||
| 07:50 | 22.1 | 55.6 | 1021.7 | 10.3 | SE | 20.8 | E | 0.0 | 437.8 | |||||||||
| 07:55 | 22.4 | 54.2 | 1021.7 | 12.1 | SE | 24.7 | SE | 0.0 | 453.8 | |||||||||
| 08:00 | 22.1 | 54.6 | 1021.7 | 11.3 | SE | 24.3 | SSE | 0.0 | 468.4 | |||||||||
| 08:05 | 21.9 | 54.3 | 1021.9 | 13.4 | SE | 22.2 | SE | 0.0 | 483.0 | |||||||||
| 08:10 | 22.0 | 55.0 | 1021.9 | 10.1 | SE | 22.6 | SSE | 0.0 | 497.9 | |||||||||
| 08:15 | 22.2 | 55.7 | 1022.0 | 7.7 | SE | 19.4 | SE | 0.0 | 511.7 | |||||||||
| 08:20 | 22.3 | 55.2 | 1022.0 | 11.1 | SE | 25.1 | SE | 0.0 | 525.3 | |||||||||
| 08:25 | 22.4 | 55.6 | 1022.0 | 9.0 | SE | 23.3 | SE | 0.0 | 538.8 | |||||||||
| 08:30 | 22.3 | 55.3 | 1022.0 | 8.0 | SE | 21.9 | SE | 0.0 | 552.8 | |||||||||
| 08:35 | 22.4 | 54.8 | 1022.1 | 7.3 | SE | 18.0 | S | 0.0 | 565.9 | |||||||||
| 08:40 | 22.5 | 54.3 | 1022.1 | 9.2 | SE | 19.8 | SE | 0.0 | 578.6 | |||||||||
| 08:45 | 23.2 | 52.8 | 1022.3 | 10.1 | SE | 20.8 | SE | 0.0 | 590.5 | |||||||||
| 08:50 | 23.3 | 52.3 | 1022.3 | 8.0 | SE | 16.2 | E | 0.0 | 603.2 | |||||||||
| 08:55 | 22.9 | 53.1 | 1022.4 | 8.1 | ESE | 21.2 | SSE | 0.0 | 615.9 | |||||||||
| 09:00 | 23.6 | 52.3 | 1022.4 | 4.8 | ESE | 14.1 | ESE | 0.0 | 628.1 | |||||||||
| 09:05 | 23.7 | 51.6 | 1022.4 | 6.5 | ESE | 19.4 | SE | 0.0 | 641.1 | |||||||||
| 09:10 | 23.8 | 50.9 | 1022.4 | 7.2 | ESE | 18.4 | E | 0.0 | 651.0 | |||||||||
| 09:15 | 23.4 | 53.1 | 1022.4 | 4.0 | ENE | 18.7 | NE | 0.0 | 662.6 | |||||||||
| 09:20 | 24.5 | 50.7 | 1022.4 | 4.2 | ENE | 13.4 | ESE | 0.0 | 674.1 | |||||||||
| 09:25 | 24.4 | 50.5 | 1022.5 | 4.7 | NE | 12.4 | NE | 0.0 | 685.0 | |||||||||
| 09:30 | 23.9 | 51.2 | 1022.5 | 5.1 | NE | 12.7 | ENE | 0.0 | 695.3 | |||||||||
| 09:35 | 24.2 | 52.2 | 1022.6 | 5.2 | NE | 14.5 | E | 0.0 | 705.6 | |||||||||
| 09:40 | 24.2 | 52.3 | 1022.6 | 7.1 | ENE | 14.5 | E | 0.0 | 715.3 | |||||||||
| 09:45 | 24.5 | 51.3 | 1022.6 | 6.4 | ENE | 16.2 | E | 0.0 | 725.6 | |||||||||
| 09:50 | 24.6 | 51.3 | 1022.6 | 4.7 | ENE | 11.6 | ENE | 0.0 | 732.9 | |||||||||
| 09:55 | 24.8 | 50.4 | 1022.5 | 3.8 | ENE | 12.4 | ENE | 0.0 | 744.2 | |||||||||
| 10:00 | 25.1 | 49.1 | 1022.5 | 5.1 | ENE | 12.7 | ENE | 0.0 | 753.0 | |||||||||
| 10:05 | 25.6 | 47.9 | 1022.6 | 3.4 | ENE | 10.6 | NE | 0.0 | 761.9 | |||||||||
| 10:10 | 25.4 | 48.0 | 1022.6 | 5.7 | NE | 13.8 | ENE | 0.0 | 766.8 | |||||||||
| 10:15 | 25.3 | 48.8 | 1022.6 | 6.1 | ENE | 15.2 | NE | 0.0 | 791.5 | |||||||||
| 10:20 | 25.9 | 47.9 | 1022.6 | 4.1 | ENE | 12.0 | E | 0.0 | 818.0 | |||||||||
| 10:25 | 26.2 | 46.5 | 1022.6 | 3.3 | NE | 9.9 | NE | 0.0 | 742.4 | |||||||||
| 10:30 | 25.9 | 47.0 | 1022.6 | 5.1 | NE | 12.7 | ENE | 0.0 | 854.0 | |||||||||
| 10:35 | 25.9 | 47.4 | 1022.6 | 4.3 | NE | 11.3 | ENE | 0.0 | 876.0 | |||||||||
| Máxima | 26.2 | 66.6 | 1022.6 | 16.9 | SE | 27.5 | SE | 0.0 | 876.0 | |||||||||
| Mínima | 18.6 | 46.5 | 1020.7 | |||||||||||||||
| Total | 0.0 | |||||||||||||||||